Date String (YYYY-MM-DD hh:mm:ss) UTC,Instrument flags,Ambient pressure (hPa),Sample flow (lpm),Bypass flow (lpm),Sample temperature (°C),Ambient temperature (°C),ASC tube jacket temperature (°C),LED temperature (°C),Box temperature (°C),Sample RH (%),Span deviation,Mass concentration (μg/m³),Mass concentration (μg/m³),Mass concentration (μg/m³)
DateTimeUTC,F1_M11,P_M11,Q1_M11,Q2_M11,T1_M11,T2_M11,T3_M11,T4_M11,T5_M11,U1_M11,ZSPAN_M11,X0_M11,X2_M11,X1_M11
2021-10-11 02:00:00,,0822.0,5.01,0.00,29.7,28.5,00.0,38.9,31.3,09.6,0000.0,0003.49,0002.75,0002.45
2021-10-11 02:01:00,,0822.1,5.00,0.00,29.7,28.5,00.0,38.9,31.3,09.7,0000.0,0003.42,0002.73,0002.45
2021-10-11 02:02:00,,0822.0,5.00,0.00,29.7,28.6,00.0,38.9,31.3,09.7,0000.0,0003.35,0002.72,0002.47
2021-10-11 02:03:00,,0821.9,5.01,0.00,29.7,28.6,00.0,38.9,31.3,09.7,0000.0,0003.24,0002.68,0002.46
2021-10-11 02:04:00,,0821.9,5.00,0.00,29.7,28.5,00.0,38.9,31.2,09.8,0000.0,0003.63,0002.69,0002.45
2021-10-11 02:05:00,,0821.9,5.01,0.00,29.6,28.4,00.0,38.9,31.2,09.8,0000.0,0004.04,0002.71,0002.46
2021-10-11 02:06:00,,0821.8,5.00,0.00,29.6,28.4,00.0,38.9,31.2,09.7,0000.0,0004.03,0002.70,0002.44
2021-10-11 02:07:00,,0822.0,5.00,0.00,29.6,28.3,00.0,38.8,31.2,09.8,0000.0,0004.06,0002.71,0002.44
2021-10-11 02:08:00,,0821.8,5.00,0.00,29.6,28.3,00.0,38.8,31.2,09.8,0000.0,0003.99,0002.71,0002.45
2021-10-11 02:09:00,,0822.1,4.99,0.00,29.6,28.3,00.0,38.8,31.2,09.8,0000.0,0003.90,0002.68,0002.44
2021-10-11 02:10:00,,0821.8,5.02,0.00,29.6,28.3,00.0,38.8,31.2,09.7,0000.0,0003.88,0002.67,0002.43
2021-10-11 02:11:00,,0821.8,5.00,0.00,29.6,28.3,00.0,38.8,31.2,09.8,0000.0,0003.94,0002.70,0002.45
2021-10-11 02:12:00,,0821.8,5.00,0.00,29.6,28.3,00.0,38.8,31.1,09.7,0000.0,0003.99,0002.72,0002.45
2021-10-11 02:13:00,,0822.0,5.00,0.00,29.6,28.3,00.0,38.8,31.2,09.8,0000.0,0004.01,0002.73,0002.44
2021-10-11 02:14:00,,0821.9,5.01,0.00,29.6,28.2,00.0,38.8,31.2,09.7,0000.0,0004.01,0002.72,0002.44
2021-10-11 02:15:00,,0821.9,4.99,0.00,29.6,28.2,00.0,38.8,31.1,09.7,0000.0,0003.77,0002.71,0002.44
2021-10-11 02:16:00,,0822.0,5.01,0.00,29.6,28.3,00.0,38.8,31.2,09.8,0000.0,0003.40,0002.71,0002.44
2021-10-11 02:17:00,,0821.9,4.98,0.00,29.6,28.3,00.0,38.8,31.1,09.8,0000.0,0003.44,0002.73,0002.45
2021-10-11 02:18:00,,0821.9,5.00,0.00,29.5,28.3,00.0,38.8,31.1,09.8,0000.0,0003.84,0002.74,0002.44
2021-10-11 02:19:00,,0822.0,5.01,0.00,29.5,28.3,00.0,38.8,31.1,09.8,0000.0,0004.03,0002.72,0002.42
2021-10-11 02:20:00,,0822.1,5.01,0.00,29.5,28.3,00.0,38.8,31.1,09.8,0000.0,0003.97,0002.69,0002.41
2021-10-11 02:21:00,,0821.8,4.99,0.00,29.5,28.3,00.0,38.8,31.1,09.8,0000.0,0003.95,0002.69,0002.42
2021-10-11 02:22:00,,0821.8,5.00,0.00,29.5,28.3,00.0,38.8,31.1,09.8,0000.0,0003.94,0002.67,0002.41
2021-10-11 02:23:00,,0821.8,5.01,0.00,29.5,28.3,00.0,38.7,31.2,09.8,0000.0,0003.89,0002.64,0002.41
2021-10-11 02:24:00,,0821.8,4.99,0.00,29.5,28.3,00.0,38.7,31.1,09.8,0000.0,0003.87,0002.62,0002.40
2021-10-11 02:25:00,,0821.8,5.01,0.00,29.5,28.3,00.0,38.7,31.0,09.8,0000.0,0003.90,0002.62,0002.40
2021-10-11 02:26:00,,0821.8,5.01,0.00,29.5,28.2,00.0,38.7,31.1,09.7,0000.0,0004.26,0002.64,0002.40
2021-10-11 02:27:00,,0821.8,4.99,0.00,29.5,28.2,00.0,38.7,31.1,09.7,0000.0,0004.12,0002.61,0002.40
2021-10-11 02:28:00,,0821.8,5.00,0.00,29.5,28.3,00.0,38.7,31.1,09.8,0000.0,0004.10,0002.61,0002.40
2021-10-11 02:29:00,,0821.8,5.00,0.00,29.4,28.3,00.0,38.7,31.0,09.8,0000.0,0003.68,0002.59,0002.40
2021-10-11 02:30:00,,0821.9,5.00,0.00,29.4,28.3,00.0,38.7,31.0,09.8,0000.0,0003.42,0002.58,0002.40
2021-10-11 02:31:00,,0821.8,5.00,0.00,29.4,28.3,00.0,38.7,31.1,09.9,0000.0,0003.59,0002.59,0002.41
2021-10-11 02:32:00,,0821.9,5.00,0.00,29.4,28.3,00.0,38.7,31.0,09.9,0000.0,0004.09,0002.61,0002.41
2021-10-11 02:33:00,,0822.0,4.99,0.00,29.4,28.2,00.0,38.6,31.0,09.9,0000.0,0004.08,0002.58,0002.39
2021-10-11 02:34:00,,0822.0,5.01,0.00,29.4,28.2,00.0,38.6,30.9,09.8,0000.0,0004.07,0002.57,0002.38
2021-10-11 02:35:00,,0821.8,4.99,0.00,29.4,28.1,00.0,38.6,30.9,09.8,0000.0,0004.07,0002.56,0002.37
2021-10-11 02:36:00,,0821.9,5.00,0.00,29.4,28.1,00.0,38.6,30.9,09.8,0000.0,0004.05,0002.55,0002.37
2021-10-11 02:37:00,,0822.0,5.01,0.00,29.4,28.1,00.0,38.6,31.0,09.8,0000.0,0003.61,0002.53,0002.37
2021-10-11 02:38:00,,0822.0,4.99,0.00,29.4,28.1,00.0,38.6,31.0,09.8,0000.0,0003.59,0002.51,0002.36
2021-10-11 02:39:00,,0821.9,5.00,0.00,29.4,28.1,00.0,38.6,31.0,09.8,0000.0,0003.60,0002.51,0002.37
2021-10-11 02:40:00,,0822.1,5.00,0.00,29.4,28.0,00.0,38.6,30.9,09.8,0000.0,0003.76,0002.55,0002.37
2021-10-11 02:41:00,,0821.9,5.00,0.00,29.4,28.0,00.0,38.6,31.0,09.8,0000.0,0003.90,0002.59,0002.37
2021-10-11 02:42:00,,0822.0,5.00,0.00,29.4,28.0,00.0,38.6,31.0,09.8,0000.0,0003.94,0002.61,0002.37
2021-10-11 02:43:00,,0822.1,5.00,0.00,29.3,28.0,00.0,38.6,31.0,09.8,0000.0,0003.37,0002.59,0002.36
2021-10-11 02:44:00,,0822.1,5.00,0.00,29.3,28.0,00.0,38.6,31.0,09.7,0000.0,0003.28,0002.60,0002.36
2021-10-11 02:45:00,,0822.1,4.99,0.00,29.3,28.0,00.0,38.6,31.0,09.7,0000.0,0003.26,0002.60,0002.37
2021-10-11 02:46:00,,0822.1,5.01,0.00,29.3,28.0,00.0,38.6,30.9,09.7,0000.0,0003.30,0002.63,0002.38
2021-10-11 02:47:00,,0822.1,5.01,0.00,29.3,28.0,00.0,38.6,31.0,09.7,0000.0,0003.32,0002.64,0002.38
2021-10-11 02:48:00,,0822.1,5.00,0.00,29.3,28.1,00.0,38.6,31.0,09.7,0000.0,0003.30,0002.63,0002.36
2021-10-11 02:49:00,,0822.1,5.00,0.00,29.4,28.1,00.0,38.6,31.0,09.7,0000.0,0003.30,0002.62,0002.36
2021-10-11 02:50:00,,0822.1,5.01,0.00,29.4,28.1,00.0,38.6,31.0,09.7,0000.0,0003.27,0002.61,0002.34
2021-10-11 02:51:00,,0822.2,5.00,0.00,29.4,28.1,00.0,38.6,31.0,09.7,0000.0,0003.13,0002.57,0002.33
2021-10-11 02:52:00,,0822.2,4.99,0.00,29.3,28.1,00.0,38.6,30.9,09.6,0000.0,0002.98,0002.52,0002.32
2021-10-11 02:53:00,,0822.2,5.01,0.00,29.3,28.1,00.0,38.6,30.9,09.6,0000.0,0003.03,0002.53,0002.31
2021-10-11 02:54:00,,0822.2,5.00,0.00,29.3,28.1,00.0,38.5,30.9,09.6,0000.0,0003.05,0002.54,0002.30
2021-10-11 02:55:00,,0822.2,5.00,0.00,29.3,28.1,00.0,38.5,30.9,09.6,0000.0,0003.10,0002.55,0002.28
2021-10-11 02:56:00,,0822.2,5.00,0.00,29.3,28.1,00.0,38.5,30.9,09.6,0000.0,0003.21,0002.59,0002.28
2021-10-11 02:57:00,,0822.3,5.00,0.00,29.3,28.1,00.0,38.5,30.9,09.6,0000.0,0003.24,0002.58,0002.28
2021-10-11 02:58:00,,0822.3,5.01,0.00,29.3,28.1,00.0,38.5,30.9,09.6,0000.0,0003.38,0002.61,0002.27
2021-10-11 02:59:00,,0822.3,4.99,0.00,29.3,28.1,00.0,38.6,31.0,09.6,0000.0,0003.52,0002.63,0002.26
